Location: Blanot
(47.1713°N, 4.2340°E)
Time: 10:58:12
(UTC+00:00)

Meteor 1-11 Rocket - Pass Details

Date: 14 July 2020
Orbit: 831 x 915 km, 81.2° (Epoch: 05 August)

Event Time Altitude Azimuth Distance (km) Brightness Sun altitude
Exits shadow 02:04:15 19° 188° (S) 1,878 5.0 -14.8°
Maximum altitude 02:08:18 88° 100° (E) 840 3.7 -14.4°
Drops below altitude 10° 02:13:51 10° 12° (NNE) 2,453 7.2 -13.9°
Sets 02:16:16 0° 12° (NNE) 3,396 8.2 -13.6°
